Time,TemperatureF,DewpointF,PressureIn,WindDirection,WindDirectionDegrees,WindSpeedMPH,WindSpeedGustMPH,Humidity,HourlyPrecipIn,Conditions,Clouds,dailyrainin,SoftwareType,DateUTC
2013-02-07 00:02:00,44.0,21.0,30.16,North,360,0.0,0.0,40,0.00,,,0.00,,2013-02-07 05:02:00,
2013-02-07 00:12:00,44.0,21.0,30.16,North,360,0.0,0.0,40,0.00,,,0.00,,2013-02-07 05:12:00,
2013-02-07 00:21:00,44.0,22.0,30.15,North,360,0.0,0.0,41,0.00,,,0.00,,2013-02-07 05:21:00,
2013-02-07 00:32:00,44.0,22.0,30.15,North,360,0.0,0.0,42,0.00,,,0.00,,2013-02-07 05:32:00,
2013-02-07 00:42:00,44.0,22.0,30.15,North,360,0.0,0.0,42,0.00,,,0.00,,2013-02-07 05:42:00,
2013-02-07 00:52:00,44.0,21.0,30.15,North,360,0.0,0.0,40,0.00,,,0.00,,2013-02-07 05:52:00,
2013-02-07 01:02:00,44.0,23.0,30.16,North,360,0.0,0.0,43,0.00,,,0.00,,2013-02-07 06:02:00,
2013-02-07 01:11:00,44.0,23.0,30.16,North,360,0.0,0.0,43,0.00,,,0.00,,2013-02-07 06:11:00,
2013-02-07 01:22:00,43.0,22.0,30.16,North,360,0.0,0.0,43,0.00,,,0.00,,2013-02-07 06:22:00,
2013-02-07 01:32:00,43.0,23.0,30.15,North,360,0.0,0.0,44,0.00,,,0.00,,2013-02-07 06:32:00,
2013-02-07 01:43:00,43.0,23.0,30.15,North,360,0.0,0.0,44,0.00,,,0.00,,2013-02-07 06:43:00,
2013-02-07 01:52:00,43.0,23.0,30.16,North,360,0.0,0.0,44,0.00,,,0.00,,2013-02-07 06:52:00,
2013-02-07 02:02:00,43.0,24.0,30.16,North,360,0.0,0.0,46,0.00,,,0.00,,2013-02-07 07:02:00,
2013-02-07 02:11:00,42.0,22.0,30.16,North,360,0.0,0.0,44,0.00,,,0.00,,2013-02-07 07:11:00,
2013-02-07 02:22:00,42.0,22.0,30.16,North,360,0.0,0.0,44,0.00,,,0.00,,2013-02-07 07:22:00,
2013-02-07 02:32:00,43.0,23.0,30.16,North,360,0.0,0.0,45,0.00,,,0.00,,2013-02-07 07:32:00,
2013-02-07 02:42:00,43.0,23.0,30.16,North,360,0.0,0.0,45,0.00,,,0.00,,2013-02-07 07:42:00,
2013-02-07 02:52:00,43.0,23.0,30.16,North,360,0.0,0.0,44,0.00,,,0.00,,2013-02-07 07:52:00,
2013-02-07 03:02:00,42.0,24.0,30.15,North,360,0.0,0.0,49,0.00,,,0.00,,2013-02-07 08:02:00,
2013-02-07 03:11:00,42.0,24.0,30.15,North,360,0.0,0.0,49,0.00,,,0.00,,2013-02-07 08:11:00,
2013-02-07 03:22:00,43.0,26.0,30.16,North,360,0.0,0.0,51,0.00,,,0.00,,2013-02-07 08:22:00,
2013-02-07 03:32:00,44.0,25.0,30.17,North,360,0.0,0.0,47,0.00,,,0.00,,2013-02-07 08:32:00,
2013-02-07 03:42:00,44.0,25.0,30.17,North,360,0.0,0.0,47,0.00,,,0.00,,2013-02-07 08:42:00,
2013-02-07 03:52:00,46.0,26.0,30.18,North,360,0.0,0.0,45,0.00,,,0.00,,2013-02-07 08:52:00,
2013-02-07 04:02:00,45.0,25.0,30.17,North,360,0.0,0.0,45,0.00,,,0.00,,2013-02-07 09:02:00,
2013-02-07 04:11:00,45.0,25.0,30.17,North,360,0.0,0.0,45,0.00,,,0.00,,2013-02-07 09:11:00,
2013-02-07 04:21:00,45.0,25.0,30.19,North,360,0.0,0.0,45,0.00,,,0.00,,2013-02-07 09:21:00,
2013-02-07 04:32:00,46.0,26.0,30.18,North,360,0.0,0.0,45,0.00,,,0.00,,2013-02-07 09:32:00,
2013-02-07 04:42:00,46.0,26.0,30.18,North,360,0.0,0.0,45,0.00,,,0.00,,2013-02-07 09:42:00,
2013-02-07 04:52:00,46.0,26.0,30.19,North,360,0.0,0.0,46,0.00,,,0.00,,2013-02-07 09:52:00,
2013-02-07 05:02:00,46.0,28.0,30.19,North,360,0.0,0.0,50,0.00,,,0.00,,2013-02-07 10:02:00,
2013-02-07 05:11:00,46.0,28.0,30.19,North,360,0.0,0.0,50,0.00,,,0.00,,2013-02-07 10:11:00,
2013-02-07 05:22:00,46.0,27.0,30.19,North,360,0.0,0.0,47,0.00,,,0.00,,2013-02-07 10:22:00,
2013-02-07 05:32:00,46.0,27.0,30.17,North,360,0.0,0.0,48,0.00,,,0.00,,2013-02-07 10:32:00,
2013-02-07 05:42:00,46.0,27.0,30.17,North,360,0.0,0.0,48,0.00,,,0.00,,2013-02-07 10:42:00,
2013-02-07 05:51:00,45.0,27.0,30.17,North,360,0.0,0.0,49,0.00,,,0.00,,2013-02-07 10:51:00,
2013-02-07 06:01:00,45.0,28.0,30.16,North,360,0.0,0.0,51,0.00,,,0.00,,2013-02-07 11:01:00,
2013-02-07 06:11:00,45.0,28.0,30.16,North,360,0.0,0.0,51,0.00,,,0.00,,2013-02-07 11:11:00,
2013-02-07 06:23:00,45.0,27.0,30.16,North,360,0.0,0.0,50,0.00,,,0.00,,2013-02-07 11:23:00,
2013-02-07 06:32:00,45.0,27.0,30.16,North,360,0.0,0.0,50,0.00,,,0.00,,2013-02-07 11:32:00,
2013-02-07 06:44:00,45.0,27.0,30.16,North,360,0.0,0.0,50,0.00,,,0.00,,2013-02-07 11:44:00,
2013-02-07 06:52:00,45.0,29.0,30.16,North,360,0.0,0.0,53,0.00,,,0.00,,2013-02-07 11:52:00,
2013-02-07 07:02:00,45.0,28.0,30.16,North,360,0.0,0.0,52,0.00,,,0.00,,2013-02-07 12:02:00,
2013-02-07 07:11:00,45.0,28.0,30.16,North,360,0.0,0.0,52,0.00,,,0.00,,2013-02-07 12:11:00,
2013-02-07 07:22:00,45.0,28.0,30.16,North,360,0.0,0.0,52,0.00,,,0.00,,2013-02-07 12:22:00,
2013-02-07 07:33:00,45.0,28.0,30.16,North,360,0.0,0.0,51,0.00,,,0.00,,2013-02-07 12:33:00,
2013-02-07 07:42:00,45.0,28.0,30.16,North,360,0.0,0.0,51,0.00,,,0.00,,2013-02-07 12:42:00,
2013-02-07 07:52:00,45.0,28.0,30.16,North,360,0.0,0.0,51,0.00,,,0.00,,2013-02-07 12:52:00,
2013-02-07 08:03:00,45.0,28.0,30.15,North,360,0.0,0.0,52,0.00,,,0.00,,2013-02-07 13:03:00,
2013-02-07 08:12:00,45.0,28.0,30.15,North,360,0.0,0.0,52,0.00,,,0.00,,2013-02-07 13:12:00,
2013-02-07 08:22:00,45.0,30.0,30.16,North,360,0.0,0.0,55,0.00,,,0.00,,2013-02-07 13:22:00,
2013-02-07 08:32:00,45.0,29.0,30.16,North,360,0.0,0.0,53,0.00,,,0.00,,2013-02-07 13:32:00,
2013-02-07 08:42:00,45.0,29.0,30.16,North,360,0.0,0.0,53,0.00,,,0.00,,2013-02-07 13:42:00,
2013-02-07 08:52:00,46.0,29.0,30.15,North,360,0.0,0.0,52,0.00,,,0.00,,2013-02-07 13:52:00,
2013-02-07 09:01:00,46.0,32.0,30.16,North,360,0.0,0.0,58,0.00,,,0.00,,2013-02-07 14:01:00,
2013-02-07 09:11:00,46.0,32.0,30.16,North,360,0.0,0.0,58,0.00,,,0.00,,2013-02-07 14:11:00,
2013-02-07 09:22:00,46.0,33.0,30.16,North,360,0.0,0.0,61,0.00,,,0.00,,2013-02-07 14:22:00,
2013-02-07 09:32:00,46.0,35.0,30.16,North,360,0.0,0.0,65,0.00,,,0.00,,2013-02-07 14:32:00,
2013-02-07 09:42:00,46.0,35.0,30.16,North,360,0.0,0.0,65,0.00,,,0.00,,2013-02-07 14:42:00,
2013-02-07 09:52:00,46.0,32.0,30.15,North,360,0.0,0.0,58,0.00,,,0.00,,2013-02-07 14:52:00,
2013-02-07 10:02:00,47.0,33.0,30.14,North,360,0.0,0.0,57,0.00,,,0.00,,2013-02-07 15:02:00,
2013-02-07 10:11:00,47.0,33.0,30.14,North,360,0.0,0.0,57,0.00,,,0.00,,2013-02-07 15:11:00,
2013-02-07 10:22:00,48.0,34.0,30.13,North,360,0.0,0.0,57,0.00,,,0.00,,2013-02-07 15:22:00,
2013-02-07 10:32:00,49.0,33.0,30.11,North,360,0.0,0.0,53,0.00,,,0.00,,2013-02-07 15:32:00,
2013-02-07 10:42:00,49.0,33.0,30.11,North,360,0.0,0.0,53,0.00,,,0.00,,2013-02-07 15:42:00,
2013-02-07 10:52:00,48.0,34.0,30.12,North,360,0.0,0.0,59,0.00,,,0.00,,2013-02-07 15:52:00,
2013-02-07 11:01:00,46.0,34.0,30.11,North,360,0.0,0.0,62,0.00,,,0.00,,2013-02-07 16:01:00,
2013-02-07 11:11:00,46.0,34.0,30.11,North,360,0.0,0.0,62,0.00,,,0.00,,2013-02-07 16:11:00,
2013-02-07 11:22:00,47.0,35.0,30.11,North,360,0.0,0.0,64,0.00,,,0.00,,2013-02-07 16:22:00,
2013-02-07 11:32:00,46.0,34.0,30.10,North,360,0.0,0.0,63,0.00,,,0.00,,2013-02-07 16:32:00,
2013-02-07 11:42:00,46.0,34.0,30.10,North,360,0.0,0.0,63,0.00,,,0.00,,2013-02-07 16:42:00,
2013-02-07 11:52:00,46.0,36.0,30.10,North,360,0.0,0.0,68,0.00,,,0.00,,2013-02-07 16:52:00,
2013-02-07 12:01:00,46.0,35.0,30.09,North,360,0.0,0.0,64,0.00,,,0.00,,2013-02-07 17:01:00,
2013-02-07 12:11:00,46.0,35.0,30.09,North,360,0.0,0.0,64,0.00,,,0.00,,2013-02-07 17:11:00,
2013-02-07 12:21:00,44.0,35.0,30.10,SSE,164,0.0,0.0,71,0.00,,,0.00,,2013-02-07 17:21:00,
2013-02-07 12:32:00,46.0,38.0,30.09,SSE,164,0.0,0.0,74,0.00,,,0.00,,2013-02-07 17:32:00,
2013-02-07 12:43:00,46.0,38.0,30.09,SSE,164,0.0,0.0,74,0.00,,,0.00,,2013-02-07 17:43:00,
2013-02-07 12:52:00,46.0,40.0,30.09,SSE,164,0.0,0.0,78,0.01,,,0.00,,2013-02-07 17:52:00,
2013-02-07 13:02:00,46.0,41.0,30.07,SSE,164,0.0,0.0,81,0.01,,,0.01,,2013-02-07 18:02:00,
2013-02-07 13:11:00,46.0,41.0,30.07,SSE,164,0.0,0.0,81,0.01,,,0.01,,2013-02-07 18:11:00,
2013-02-07 13:23:00,43.0,38.0,30.07,SSE,164,0.0,0.0,84,0.01,,,0.01,,2013-02-07 18:23:00,
2013-02-07 13:32:00,43.0,38.0,30.06,SSE,164,0.0,0.0,84,0.02,,,0.02,,2013-02-07 18:32:00,
2013-02-07 13:42:00,43.0,38.0,30.06,SSE,164,0.0,0.0,84,0.02,,,0.02,,2013-02-07 18:42:00,
2013-02-07 13:52:00,44.0,38.0,30.07,SSE,164,0.0,0.0,79,0.03,,,0.03,,2013-02-07 18:52:00,
2013-02-07 14:01:00,44.0,40.0,30.06,NNE,20,0.0,0.0,87,0.05,,,0.06,,2013-02-07 19:01:00,
2013-02-07 14:11:00,44.0,40.0,30.06,NNE,20,0.0,0.0,87,0.05,,,0.06,,2013-02-07 19:11:00,
2013-02-07 14:22:00,45.0,42.0,30.06,NE,51,0.0,2.0,88,0.05,,,0.06,,2013-02-07 19:22:00,
2013-02-07 14:32:00,45.0,41.0,30.05,NE,43,0.0,0.0,86,0.04,,,0.06,,2013-02-07 19:32:00,
2013-02-07 14:42:00,45.0,41.0,30.05,NE,43,0.0,0.0,86,0.04,,,0.06,,2013-02-07 19:42:00,
2013-02-07 14:52:00,45.0,41.0,30.05,NE,43,0.0,0.0,87,0.04,,,0.07,,2013-02-07 19:52:00,
2013-02-07 15:01:00,45.0,41.0,30.05,NE,40,0.0,0.0,87,0.03,,,0.09,,2013-02-07 20:01:00,
2013-02-07 15:11:00,45.0,41.0,30.05,NE,40,0.0,0.0,87,0.03,,,0.09,,2013-02-07 20:11:00,
2013-02-07 15:22:00,45.0,42.0,30.04,ENE,74,0.0,0.0,88,0.04,,,0.10,,2013-02-07 20:22:00,
2013-02-07 15:32:00,45.0,41.0,30.03,ENE,69,0.0,0.0,85,0.09,,,0.14,,2013-02-07 20:32:00,
2013-02-07 15:42:00,45.0,41.0,30.03,ENE,69,0.0,0.0,85,0.09,,,0.14,,2013-02-07 20:42:00,
2013-02-07 15:52:00,44.0,40.0,30.03,NE,49,0.0,0.0,87,0.11,,,0.18,,2013-02-07 20:52:00,
2013-02-07 16:02:00,44.0,42.0,30.03,North,11,0.0,0.0,92,0.14,,,0.23,,2013-02-07 21:02:00,
2013-02-07 16:11:00,44.0,42.0,30.03,North,11,0.0,0.0,92,0.14,,,0.23,,2013-02-07 21:11:00,
2013-02-07 16:22:00,44.0,40.0,30.02,NNE,25,2.0,3.0,87,0.14,,,0.24,,2013-02-07 21:22:00,
2013-02-07 16:32:00,43.0,39.0,30.02,NNW,345,0.0,0.0,87,0.11,,,0.25,,2013-02-07 21:32:00,
2013-02-07 16:42:00,43.0,39.0,30.02,NNW,345,0.0,0.0,87,0.11,,,0.25,,2013-02-07 21:42:00,
2013-02-07 16:52:00,44.0,41.0,30.01,NNE,20,0.0,0.0,89,0.08,,,0.25,,2013-02-07 21:52:00,
2013-02-07 17:02:00,43.0,40.0,30.01,NE,36,0.0,0.0,88,0.03,,,0.26,,2013-02-07 22:02:00,
2013-02-07 17:11:00,43.0,40.0,30.01,NE,36,0.0,0.0,88,0.03,,,0.26,,2013-02-07 22:11:00,
2013-02-07 17:22:00,43.0,40.0,30.00,NNW,333,0.0,0.0,88,0.02,,,0.26,,2013-02-07 22:22:00,
2013-02-07 17:32:00,44.0,40.0,29.99,NNW,333,0.0,0.0,86,0.01,,,0.26,,2013-02-07 22:32:00,
2013-02-07 17:42:00,44.0,40.0,29.99,NNW,333,0.0,0.0,86,0.01,,,0.26,,2013-02-07 22:42:00,
2013-02-07 17:52:00,44.0,40.0,29.99,NNW,333,0.0,0.0,87,0.02,,,0.27,,2013-02-07 22:52:00,
2013-02-07 18:02:00,44.0,40.0,29.99,NNW,333,0.0,0.0,87,0.01,,,0.27,,2013-02-07 23:02:00,
2013-02-07 18:11:00,44.0,40.0,29.99,NNW,333,0.0,0.0,87,0.01,,,0.27,,2013-02-07 23:11:00,
2013-02-07 18:22:00,44.0,40.0,29.99,NNW,333,0.0,0.0,87,0.02,,,0.28,,2013-02-07 23:22:00,
2013-02-07 18:32:00,44.0,40.0,30.00,NNW,333,0.0,0.0,87,0.02,,,0.28,,2013-02-07 23:32:00,
2013-02-07 18:42:00,44.0,40.0,30.00,NNW,333,0.0,0.0,87,0.02,,,0.28,,2013-02-07 23:42:00,
2013-02-07 18:52:00,43.0,40.0,30.00,NNW,333,0.0,0.0,88,0.01,,,0.28,,2013-02-07 23:52:00,
2013-02-07 19:02:00,44.0,40.0,30.00,NNW,333,0.0,0.0,87,0.02,,,0.29,,2013-02-08 00:02:00,
2013-02-07 19:11:00,44.0,40.0,30.00,NNW,333,0.0,0.0,87,0.02,,,0.29,,2013-02-08 00:11:00,
2013-02-07 19:22:00,44.0,40.0,30.00,NNW,333,0.0,0.0,87,0.02,,,0.30,,2013-02-08 00:22:00,
2013-02-07 19:32:00,43.0,40.0,30.00,NNW,333,0.0,0.0,88,0.03,,,0.31,,2013-02-08 00:32:00,
2013-02-07 19:42:00,43.0,40.0,30.00,NNW,333,0.0,0.0,88,0.03,,,0.31,,2013-02-08 00:42:00,
2013-02-07 19:52:00,43.0,40.0,30.00,NNW,333,0.0,0.0,88,0.03,,,0.31,,2013-02-08 00:52:00,
2013-02-07 20:02:00,43.0,40.0,29.99,NNW,333,0.0,0.0,89,0.02,,,0.31,,2013-02-08 01:02:00,
2013-02-07 20:11:00,43.0,40.0,29.99,NNW,333,0.0,0.0,89,0.02,,,0.31,,2013-02-08 01:11:00,
2013-02-07 20:21:00,43.0,40.0,29.99,NNW,333,0.0,0.0,90,0.02,,,0.32,,2013-02-08 01:21:00,
2013-02-07 20:32:00,43.0,40.0,29.99,NNW,333,0.0,0.0,90,0.01,,,0.32,,2013-02-08 01:32:00,
2013-02-07 20:42:00,43.0,40.0,29.99,NNW,333,0.0,0.0,90,0.01,,,0.32,,2013-02-08 01:42:00,
2013-02-07 20:51:00,43.0,40.0,29.98,NNW,333,0.0,0.0,90,0.01,,,0.32,,2013-02-08 01:51:00,
2013-02-07 21:01:00,43.0,41.0,29.99,NNW,333,0.0,0.0,91,0.01,,,0.32,,2013-02-08 02:01:00,
2013-02-07 21:11:00,43.0,41.0,29.99,NNW,333,0.0,0.0,91,0.01,,,0.32,,2013-02-08 02:11:00,
2013-02-07 21:22:00,43.0,40.0,29.98,NNW,333,0.0,0.0,90,0.00,,,0.32,,2013-02-08 02:22:00,
2013-02-07 21:32:00,43.0,40.0,29.97,NNW,333,0.0,0.0,90,0.00,,,0.32,,2013-02-08 02:32:00,
2013-02-07 21:42:00,43.0,40.0,29.97,NNW,333,0.0,0.0,90,0.00,,,0.32,,2013-02-08 02:42:00,
2013-02-07 21:52:00,43.0,40.0,29.97,NNW,333,0.0,0.0,90,0.00,,,0.32,,2013-02-08 02:52:00,
2013-02-07 22:02:00,43.0,40.0,29.97,NNW,333,0.0,0.0,89,0.00,,,0.32,,2013-02-08 03:02:00,
2013-02-07 22:12:00,43.0,40.0,29.97,NNW,333,0.0,0.0,89,0.00,,,0.32,,2013-02-08 03:12:00,
2013-02-07 22:22:00,43.0,40.0,29.97,NNW,333,0.0,0.0,89,0.00,,,0.32,,2013-02-08 03:22:00,
2013-02-07 22:32:00,43.0,40.0,29.97,NNW,333,0.0,0.0,88,0.00,,,0.32,,2013-02-08 03:32:00,
2013-02-07 22:42:00,43.0,40.0,29.97,NNW,333,0.0,0.0,88,0.00,,,0.32,,2013-02-08 03:42:00,
2013-02-07 22:52:00,43.0,40.0,29.97,NNW,333,0.0,0.0,88,0.00,,,0.32,,2013-02-08 03:52:00,
2013-02-07 23:02:00,43.0,40.0,29.96,NNW,333,0.0,0.0,88,0.00,,,0.32,,2013-02-08 04:02:00,
2013-02-07 23:11:00,43.0,40.0,29.96,NNW,333,0.0,0.0,88,0.00,,,0.32,,2013-02-08 04:11:00,
2013-02-07 23:21:00,43.0,40.0,29.96,NNW,333,0.0,0.0,89,0.00,,,0.32,,2013-02-08 04:21:00,
2013-02-07 23:32:00,43.0,40.0,29.95,NNW,333,0.0,0.0,88,0.00,,,0.32,,2013-02-08 04:32:00,
2013-02-07 23:42:00,43.0,40.0,29.95,NNW,333,0.0,0.0,88,0.00,,,0.32,,2013-02-08 04:42:00,
2013-02-07 23:51:00,43.0,40.0,29.94,NNW,333,0.0,0.0,88,0.00,,,0.32,,2013-02-08 04:51:00,